sat.trackr.live / text

‹ back to catalog

STARLINK-31937

NORAD 59871 · 2024-098P

PAYLOAD ACTIVE UNKNOWN

§ Identity

Operator
Country
US
Launch date
2024-05-24
Launch site
AFETR
Launch vehicle
Mass (kg)
RCS (m²)

Purposes: comms

External: N2YO · Heavens-Above · Gunter

§ Orbital elements

Epoch: 2026-05-25T04:08:59.657280Z

Period
94.27 min
Inclination
42.9982°
Eccentricity
0.0000978
Mean motion
15.27586808 rev/d
Perigee alt
482.4 km
Apogee alt
483.7 km
Semi-major
6,861.2 km
B*
-2.4580e-5
RAAN
199.1033°
Arg perigee
300.5078°
Mean anomaly
59.5677°
Rev number
11,362

§ Raw data

STARLINK-319371 59871U 24098P   26145.17291270 -.00000938  00000+0 -24580-4 0  99942 59871  42.9982 199.1033 0000978 300.5078  59.5677 15.27586808113621

JSON: /api/v1/satellites/59871 · /tle

For live sub-satellite position, see the globe view (requires WebGL).

§ Visibility from observer

Set your observer location to see the next 7 days of passes ≥ 10°. The values pass through the URL so the page stays shareable.

No JS? Fill the form by hand. The geolocation button needs JavaScript.